Flag for Canada Weather past 2 weeks in Cranbrook, British Columbia, Canada

Now
64 °F

Passing clouds.


Feels Like: 64 °F
Forecast: 61 / 87 °F
Wind: 5 mph from West

Location: Cranbrook

Current Time: Jul 2, 2015 at 4:06:41 AM

Latest Report: Jul 2, 2015 at 3:00 AM


Visibility: 25 mi

Pressure: 30.05 "Hg

Humidity: 60%

Dew point: 50 °F

Location of CranbrookLocation

Historic Weather in Cranbrook — Graph

°F

Cranbrook temperature yesterday

Maximum temperature yesterday: 88 °F (at 5:00 PM)
Minimum temperature yesterday: 61 °F (at 6:00 AM)
Average temperature yesterday: 76 °F

Past Weeks' High & Low Weather Summary

 TemperatureHumidityPressure
High97 °F (Jun 27, 4:00 PM)94% (Jun 17, 11:00 AM)30.13 "Hg (Jun 17, 11:00 AM)
Low45 °F (Jun 21, 6:00 AM)13% (Jun 26, 7:00 PM)29.80 "Hg (Jun 19, 11:00 AM)
Average69 °F48%29.97 "Hg
* Reported Jun 17 2:00 AM — Jul 2 2:00 AM, Cranbrook, Weather by CustomWeather, © 2015

Note: Actual official high and low records may vary slightly from our data, if they occured in-between our weather recording intervals... More about our weather records

Advertising

Cranbrook weather history for previous 24 hours

 ConditionsComfort  
Time TempWeatherWind HumidityBarometerVisibility
2:00 AM
Thu, Jul 2
66 °FPassing clouds.5 mph56%30.05 "Hg25 mi
1:00 AM70 °FPassing clouds.3 mph50%30.03 "Hg25 mi
12:00 AM73 °FPassing clouds.6 mph44%30.03 "Hg25 mi
11:00 PM
Wed, Jul 1
75 °FScattered clouds.6 mph39%30.01 "Hg25 mi
10:00 PM77 °FScattered clouds.8 mph34%29.98 "Hg25 mi
9:00 PM82 °FScattered clouds.7 mph28%29.97 "Hg25 mi
8:00 PM84 °FScattered clouds.7 mph29%29.96 "Hg25 mi
7:00 PM86 °FScattered clouds.5 mph24%29.95 "Hg25 mi
6:00 PM86 °FScattered clouds.5 mph24%29.97 "Hg25 mi
5:00 PM88 °FPartly sunny.8 mph22%29.96 "Hg25 mi
4:00 PM84 °FScattered clouds.7 mph25%29.95 "Hg25 mi
3:00 PM84 °FScattered clouds.6 mph23%29.96 "Hg45 mi
2:00 PM82 °FPassing clouds.9 mph30%29.98 "Hg45 mi
1:00 PM79 °FPassing clouds.10 mph37%30.01 "Hg45 mi
12:00 PM75 °FPassing clouds.12 mph41%30.02 "Hg45 mi
11:00 AM72 °FPassing clouds.5 mph53%30.03 "Hg45 mi
10:00 AM68 °FPassing clouds.2 mph64%30.07 "Hg45 mi
9:00 AM64 °FPassing clouds.6 mph68%30.08 "Hg25 mi
8:00 AM63 °FScattered clouds.2 mph77%30.09 "Hg25 mi
7:00 AM63 °FPassing clouds.6 mphN/A30.09 "Hg25 mi
6:00 AM61 °FPassing clouds.6 mphN/A30.07 "Hg15 mi
Weather by CustomWeather, © 2015

See weather overviewHow to use our weather pages